Content
SEND FEEDBACK

Daily
Averages
Monthly
Summary
Canada

PELEE ISLAND, ONTARIO


Home > North America > Canada > Ontario
Elevation: 571 feet     Latitude: 41 46N     Longitude: 082 40W

WEATHER
 
SELECT A DAY
Number of Records: 125,303;   Date Range: 12/10/00 - 11/27/14
 
SHARE

PRINT THIS DATA

[ ← Previous Day ]
WEATHER ALMANAC - MARCH 29, 2013
[ Next Day → ]
[ °C ]   °F
Weather ElementAverageHighLow
Temperature39.7 °F47.7 °F (6:00 pm)31.6 °F (7:00 am)
Dewpoint24.2 °F31.3 °F (1:00 am)21 °F (6:00 pm)
Humidity53.8 %78 % (11:00 pm)29 % (2:00 pm)
Barometer30.25 in30.29 in (8:00 am)30.21 in (5:00 pm)
Wind Speed5.9 mph11.5 mph (1:00 pm)
Weather ElementAverage
Wind DirectionWSW (252.2 °)

Weather ElementTotal
Precipitation---
Heating Degree Days25.4 (Base 65)
Averaged from 27 records on March 29, 2013
WEATHER CONDITIONS BREAKOUT
WIND DIRECTION BREAKOUT
WEATHER BY HOUR - MARCH 29, 2013
[ °C ]   °F
Local TimeTemperatureDewpointHumidityBarometerVisibilityWind DirectionWind SpeedGust SpeedPrecipitationEventsConditions
1:00 AM37.9 °F31.3 °F77 %30.25 inWest (260°)3.5 mph
2:00 AM39.0 °F27.0 °F50 %30.26 inNW (320°)4.6 mph
2:00 AM38.8 °F26.8 °F62 %30.26 inNW (320°)4.6 mph
3:00 AM38.3 °F24.4 °F57 %30.26 inNNW (330°)4.6 mph
4:00 AM35.8 °F24.6 °F64 %30.26 inWNW (290°)4.6 mph
5:00 AM35.2 °F23.7 °F63 %30.26 inWNW (300°)4.6 mph
6:00 AM32.9 °F23.4 °F68 %30.26 inWest (280°)5.8 mph
7:00 AM31.6 °F22.3 °F68 %30.27 inNW (310°)4.6 mph
8:00 AM32.0 °F22.0 °F56 %30.29 inNW (320°)4.6 mph
8:00 AM31.6 °F22.1 °F68 %30.29 inNW (320°)4.6 mph
9:00 AM35.6 °F23.4 °F61 %30.29 inNW (320°)5.8 mph
10:00 AM39.6 °F21.7 °F49 %30.29 inNNW (330°)6.9 mph
11:00 AM42.8 °F21.9 °F44 %30.29 inNW (320°)4.6 mph
12:00 PM45.7 °F22.8 °F41 %30.28 inWNW (300°)4.6 mph
1:00 PM46.6 °F25.2 °F43 %30.27 inWSW (250°)11.5 mph
2:00 PM47.0 °F25.0 °F29 %30.25 inSW (230°)10.4 mph
2:00 PM46.8 °F25.2 °F43 %30.25 inSW (230°)10.4 mph
3:00 PM46.4 °F23.2 °F40 %30.24 inSW (220°)10.4 mph
4:00 PM47.5 °F22.1 °F37 %30.22 inSW (230°)11.5 mph
5:00 PM47.5 °F21.7 °F36 %30.21 inSW (220°)9.2 mph
6:00 PM47.7 °F21.0 °F35 %30.21 inSW (220°)8.1 mph
7:00 PM45.7 °F23.9 °F42 %30.21 inSouth (190°)5.8 mph
8:00 PM39.0 °F26.0 °F48 %30.21 inSouth (190°)4.6 mph
8:00 PM39.0 °F26.2 °F60 %30.21 inSouth (190°)4.6 mph
9:00 PM35.4 °F24.6 °F65 %30.22 inSSE (160°)2.3 mph
10:00 PM35.8 °F26.1 °F68 %30.22 inSSE (160°)2.3 mph
11:00 PM31.8 °F25.7 °F78 %30.22 inCalm
Hourly data recorded from CXHA, located miles away from Pelee Island, Ontario







STORIES FROM OUR PARTNERS